Date String (YYYY-MM-DD hh:mm:ss) UTC,Instrument flags,Ambient pressure (hPa),Sample flow (lpm),Bypass flow (lpm),Sample temperature (°C),Ambient temperature (°C),ASC tube jacket temperature (°C),LED temperature (°C),Box temperature (°C),Sample RH (%),Span deviation,Mass concentration (μg/m³),Mass concentration (μg/m³),Mass concentration (μg/m³)
DateTimeUTC,F1_M11,P_M11,Q1_M11,Q2_M11,T1_M11,T2_M11,T3_M11,T4_M11,T5_M11,U1_M11,ZSPAN_M11,X0_M11,X2_M11,X1_M11
2022-04-09 06:00:00,,0822.9,5.00,0.00,28.7,27.9,00.0,37.6,30.5,07.3,0000.0,0009.23,0002.99,0001.48
2022-04-09 06:01:00,,0823.0,5.00,0.00,28.7,27.8,00.0,37.6,30.4,07.3,0000.0,0009.40,0003.04,0001.47
2022-04-09 06:02:00,,0822.9,5.00,0.00,28.7,27.8,00.0,37.6,30.4,07.3,0000.0,0009.52,0002.99,0001.46
2022-04-09 06:03:00,,0822.9,4.99,0.00,28.7,27.8,00.0,37.6,30.4,07.3,0000.0,0009.45,0002.97,0001.45
2022-04-09 06:04:00,,0822.9,4.99,0.00,28.7,27.8,00.0,37.6,30.4,07.2,0000.0,0009.37,0002.90,0001.42
2022-04-09 06:05:00,,0822.9,5.01,0.00,28.7,27.8,00.0,37.6,30.4,07.3,0000.0,0008.81,0002.88,0001.41
2022-04-09 06:06:00,,0823.0,5.00,0.00,28.7,27.8,00.0,37.6,30.4,07.3,0000.0,0008.13,0002.80,0001.41
2022-04-09 06:07:00,,0822.9,5.00,0.00,28.7,27.8,00.0,37.6,30.4,07.3,0000.0,0007.78,0002.76,0001.39
2022-04-09 06:08:00,,0822.8,4.99,0.00,28.7,27.8,00.0,37.6,30.4,07.2,0000.0,0007.46,0002.67,0001.39
2022-04-09 06:09:00,,0822.9,5.01,0.00,28.6,27.7,00.0,37.6,30.4,07.2,0000.0,0006.23,0002.67,0001.41
2022-04-09 06:10:00,,0822.9,5.01,0.00,28.6,27.7,00.0,37.6,30.4,07.3,0000.0,0006.30,0002.68,0001.41
2022-04-09 06:11:00,,0822.7,4.98,0.00,28.6,27.7,00.0,37.6,30.3,07.3,0000.0,0006.02,0002.67,0001.40
2022-04-09 06:12:00,,0822.7,4.99,0.00,28.6,27.7,00.0,37.6,30.3,07.5,0000.0,0005.94,0002.67,0001.40
2022-04-09 06:13:00,,0822.7,5.01,0.00,28.6,27.7,00.0,37.6,30.3,07.5,0000.0,0005.56,0002.64,0001.40
2022-04-09 06:14:00,,0822.7,4.99,0.00,28.6,27.6,00.0,37.6,30.2,07.6,0000.0,0005.70,0002.56,0001.40
2022-04-09 06:15:00,,0822.7,4.99,0.00,28.5,27.6,00.0,37.6,30.2,07.7,0000.0,0005.89,0002.63,0001.43
2022-04-09 06:16:00,,0822.7,5.00,0.00,28.5,27.5,00.0,37.6,30.2,07.6,0000.0,0006.05,0002.65,0001.45
2022-04-09 06:17:00,,0822.7,5.01,0.00,28.5,27.5,00.0,37.6,30.1,07.6,0000.0,0006.25,0002.70,0001.47
2022-04-09 06:18:00,,0822.7,4.99,0.00,28.4,27.4,00.0,37.5,30.1,07.6,0000.0,0006.33,0002.75,0001.50
2022-04-09 06:19:00,,0822.6,4.99,0.00,28.4,27.4,00.0,37.5,30.0,07.6,0000.0,0006.47,0002.80,0001.51
2022-04-09 06:20:00,,0822.7,5.01,0.00,28.4,27.4,00.0,37.5,30.0,07.4,0000.0,0006.46,0002.78,0001.52
2022-04-09 06:21:00,,0822.6,4.99,0.00,28.3,27.3,00.0,37.5,30.0,07.6,0000.0,0006.06,0002.74,0001.53
2022-04-09 06:22:00,,0822.7,5.01,0.00,28.3,27.3,00.0,37.5,30.0,07.6,0000.0,0006.97,0002.66,0001.54
2022-04-09 06:23:00,,0822.6,5.00,0.00,28.3,27.3,00.0,37.4,29.9,07.6,0000.0,0007.43,0002.54,0001.54
2022-04-09 06:24:00,,0822.6,5.00,0.00,28.2,27.3,00.0,37.4,29.9,07.6,0000.0,0007.41,0002.54,0001.54
2022-04-09 06:25:00,,0822.6,5.01,0.00,28.2,27.2,00.0,37.4,29.9,07.8,0000.0,0007.42,0002.66,0001.55
2022-04-09 06:26:00,,0822.6,4.99,0.00,28.2,27.2,00.0,37.4,29.9,07.8,0000.0,0007.36,0002.67,0001.57
2022-04-09 06:27:00,,0822.6,4.99,0.00,28.2,27.2,00.0,37.3,29.8,07.8,0000.0,0007.41,0002.71,0001.57
2022-04-09 06:28:00,,0822.6,5.01,0.00,28.1,27.2,00.0,37.3,29.8,07.8,0000.0,0007.80,0002.77,0001.55
2022-04-09 06:29:00,,0822.6,5.00,0.00,28.1,27.2,00.0,37.3,29.8,07.7,0000.0,0007.90,0002.73,0001.54
2022-04-09 06:30:00,,0822.6,4.99,0.00,28.1,27.1,00.0,37.3,29.8,07.7,0000.0,0008.19,0002.69,0001.54
2022-04-09 06:31:00,,0822.6,4.99,0.00,28.1,27.1,00.0,37.3,29.8,07.7,0000.0,0008.22,0002.74,0001.53
2022-04-09 06:32:00,,0822.5,5.01,0.00,28.1,27.1,00.0,37.2,29.8,07.7,0000.0,0008.36,0002.79,0001.53
2022-04-09 06:33:00,,0822.5,5.01,0.00,28.1,27.1,00.0,37.2,29.8,07.7,0000.0,0007.89,0002.88,0001.54
2022-04-09 06:34:00,,0822.5,5.00,0.00,28.0,27.1,00.0,37.2,29.8,07.7,0000.0,0007.57,0002.96,0001.54
2022-04-09 06:35:00,,0822.5,4.99,0.00,28.0,27.1,00.0,37.2,29.7,07.6,0000.0,0007.51,0002.94,0001.54
2022-04-09 06:36:00,,0822.5,4.99,0.00,28.0,27.1,00.0,37.2,29.7,07.7,0000.0,0007.44,0002.89,0001.53
2022-04-09 06:37:00,,0822.5,5.01,0.00,28.0,27.1,00.0,37.1,29.7,07.7,0000.0,0007.55,0002.90,0001.51
2022-04-09 06:38:00,,0822.6,5.00,0.00,28.0,27.0,00.0,37.1,29.7,07.7,0000.0,0007.53,0002.89,0001.49
2022-04-09 06:39:00,,0822.5,4.99,0.00,28.0,27.0,00.0,37.1,29.7,07.7,0000.0,0006.79,0002.80,0001.48
2022-04-09 06:40:00,,0822.5,5.00,0.00,27.9,27.0,00.0,37.1,29.7,07.7,0000.0,0006.54,0002.78,0001.49
2022-04-09 06:41:00,,0822.6,5.01,0.00,27.9,27.0,00.0,37.1,29.6,07.6,0000.0,0006.22,0002.80,0001.48
2022-04-09 06:42:00,,0822.6,5.00,0.00,27.9,27.0,00.0,37.0,29.6,07.6,0000.0,0006.85,0002.72,0001.45
2022-04-09 06:43:00,,0822.6,4.99,0.00,27.9,26.9,00.0,37.0,29.6,07.7,0000.0,0006.73,0002.68,0001.43
2022-04-09 06:44:00,,0822.6,5.00,0.00,27.9,26.9,00.0,37.0,29.6,07.7,0000.0,0006.83,0002.60,0001.43
2022-04-09 06:45:00,,0822.5,5.02,0.00,27.9,26.9,00.0,37.0,29.6,07.7,0000.0,0007.29,0002.52,0001.42
2022-04-09 06:46:00,,0822.5,5.00,0.00,27.8,27.0,00.0,37.0,29.5,07.7,0000.0,0007.46,0002.52,0001.41
2022-04-09 06:47:00,,0822.5,4.99,0.00,27.8,27.0,00.0,37.0,29.6,07.6,0000.0,0007.47,0002.45,0001.39
2022-04-09 06:48:00,,0822.5,5.00,0.00,27.8,27.0,00.0,37.0,29.5,07.7,0000.0,0007.43,0002.42,0001.38
2022-04-09 06:49:00,,0822.5,4.99,0.00,27.8,27.0,00.0,36.9,29.5,07.7,0000.0,0007.42,0002.40,0001.39
2022-04-09 06:50:00,,0822.5,5.00,0.00,27.8,27.0,00.0,36.9,29.5,07.7,0000.0,0007.41,0002.41,0001.39
2022-04-09 06:51:00,,0822.5,5.02,0.00,27.8,27.0,00.0,36.9,29.6,07.8,0000.0,0007.74,0002.48,0001.38
2022-04-09 06:52:00,,0822.5,4.99,0.00,27.8,27.0,00.0,36.9,29.6,07.7,0000.0,0007.74,0002.44,0001.37
2022-04-09 06:53:00,,0822.5,4.99,0.00,27.9,27.0,00.0,36.9,29.6,07.8,0000.0,0007.35,0002.47,0001.39
2022-04-09 06:54:00,,0822.5,5.00,0.00,27.9,27.0,00.0,36.9,29.6,07.8,0000.0,0007.50,0002.55,0001.41
2022-04-09 06:55:00,,0822.4,5.00,0.00,27.9,27.0,00.0,36.9,29.6,07.8,0000.0,0007.35,0002.57,0001.40
2022-04-09 06:56:00,,0822.4,5.00,0.00,27.8,27.0,00.0,36.9,29.6,07.7,0000.0,0006.74,0002.56,0001.40
2022-04-09 06:57:00,,0822.4,5.00,0.00,27.8,26.9,00.0,36.9,29.6,07.6,0000.0,0006.67,0002.59,0001.41
2022-04-09 06:58:00,,0822.4,4.99,0.00,27.8,26.9,00.0,36.9,29.6,07.7,0000.0,0006.76,0002.65,0001.43
2022-04-09 06:59:00,,0822.4,5.01,0.00,27.8,26.9,00.0,36.9,29.6,07.7,0000.0,0007.45,0002.78,0001.45
